EW3309 Weather Reports


Display with metric or nautical units.
time (UTC)temp
F
wind
direction
speed
MPH
gust
MPH
rain 1hr
in
rain 24hr
in
rain mn
in
humidity
%
barometer
mb
20260503013038 68 272 0.0 0.0 0.00 0.00 0.00 72 1009.6
20260503011540 69 292 0.0 0.0 0.00 0.00 0.00 70 1009.4
20260503010036 70 259 0.0 0.0 0.00 0.00 0.00 69 1009.5
20260503004538 71 301 0.0 0.0 0.00 0.00 0.00 67 1009.3
20260503003038 73 308 0.0 0.0 0.00 0.00 0.00 64 1009.3
20260503001533 74 251 0.0 0.0 0.00 0.00 0.00 62 1009.3
20260503000032 74 294 0.0 0.0 0.00 0.00 0.00 62 1009.1
20260502234533 74 313 0.0 0.0 0.00 0.00 0.00 62 1009.3
20260502233029 75 293 0.0 0.0 0.00 0.00 0.00 61 1009.2
20260502231529 75 296 0.0 0.0 0.00 0.00 0.00 62 1009.3
20260502230026 75 259 0.0 0.0 0.00 0.00 0.00 61 1009.4
20260502224523 75 236 0.0 0.0 0.00 0.00 0.00 61 1009.6
20260502223021 76 267 0.0 0.0 0.00 0.00 0.00 60 1009.9
20260502221519 76 219 0.0 0.0 0.00 0.00 0.00 61 1010.1
20260502220021 75 280 0.0 0.0 0.00 0.00 0.00 61 1010.2
20260502214517 76 327 0.0 0.0 0.00 0.00 0.00 61 1010.5
20260502213032 76 280 0.0 0.0 0.00 0.00 0.00 61 1010.7
20260502211518 76 271 0.0 0.0 0.00 0.00 0.00 62 1010.9
20260502210013 77 290 0.0 0.0 0.00 0.00 0.00 60 1010.6
20260502204509 78 279 0.0 0.0 0.00 0.00 0.00 59 1010.5
20260502203006 77 248 0.0 0.0 0.00 0.00 0.00 60 1010.5
20260502201510 76 244 0.0 0.0 0.00 0.00 0.00 62 1010.6
20260502200113 76 278 0.0 0.0 0.00 0.00 0.00 61 1011.1
20260502194601 75 265 0.0 0.0 0.00 0.00 0.00 62 1011.1
20260502193106 74 271 0.0 0.0 0.00 0.00 0.00 64 1011.2
20260502191550 74 257 0.0 0.0 0.00 0.00 0.00 66 1011.7
20260502190046 71 338 0.0 0.0 0.00 0.00 0.00 70 1011.9
20260502184546 70 272 0.0 0.0 0.00 0.00 0.00 72 1012.1
20260502183036 68 331 0.0 0.0 0.00 0.00 0.00 75 1012.5
20260502181536 66 238 0.0 0.0 0.00 0.00 0.00 79 1012.6
20260502163007 61 329 0.0 0.0 0.00 0.00 0.00 88 1013.5
20260502161504 61 342 0.0 0.0 0.00 0.00 0.00 89 1013.6
20260502151611 60 344 0.0 0.0 0.00 0.00 0.00 90 1013.4
20260502123033 59 225 0.0 0.0 0.00 0.00 0.00 89 1012.6
20260502121535 59 225 0.0 0.0 0.00 0.00 0.00 89 1012.4
20260502114528 59 227 0.0 0.0 0.00 0.00 0.00 89 1012.3
20260502113027 58 300 0.0 0.0 0.00 0.00 0.00 89 1012.3
20260502111524 58 300 0.0 0.0 0.00 0.00 0.00 89 1012.3
20260502110022 58 300 0.0 0.0 0.00 0.00 0.00 89 1012.2
20260502104526 57 300 0.0 0.0 0.00 0.00 0.00 89 1012.1
20260502103020 57 300 0.0 0.0 0.00 0.00 0.00 89 1012.1
20260502101520 57 301 0.0 0.0 0.00 0.00 0.00 88 1012.1
20260502091519 56 301 0.0 0.0 0.00 0.00 0.00 87 1012.0
20260502071502 58 301 0.0 0.0 0.00 0.00 0.00 86 1012.8
20260502070122 58 301 0.0 0.0 0.00 0.00 0.00 86 1012.8
20260502064700 58 296 0.0 0.0 0.00 0.00 0.00 86 1012.7
20260502063121 58 295 0.0 0.0 0.00 0.00 0.00 86 1012.7
20260502061558 58 295 0.0 0.0 0.00 0.00 0.00 85 1012.7
20260502060059 58 295 0.0 0.0 0.00 0.00 0.00 84 1012.8
20260502054607 58 295 0.0 0.0 0.00 0.00 0.00 84 1012.9
20260502053056 59 295 0.0 0.0 0.00 0.00 0.00 84 1012.9
20260502051556 59 295 0.0 0.0 0.00 0.00 0.00 83 1012.7
20260502050055 60 295 0.0 0.0 0.00 0.00 0.00 83 1012.9
20260502044553 60 295 0.0 0.0 0.00 0.00 0.00 83 1012.6
20260502043109 60 295 0.0 0.0 0.00 0.00 0.00 82 1012.5
20260502041611 61 295 0.0 0.0 0.00 0.00 0.00 81 1012.4
20260502040054 61 295 0.0 0.0 0.00 0.00 0.00 81 1012.2
20260502034546 62 295 0.0 0.0 0.00 0.00 0.00 80 1012.1
20260502033043 62 295 0.0 0.0 0.00 0.00 0.00 80 1012.0
20260502031542 62 293 0.0 0.0 0.00 0.00 0.00 79 1011.8
20260502030058 63 294 0.0 0.0 0.00 0.00 0.00 78 1011.8
20260502024551 64 284 0.0 0.0 0.00 0.00 0.00 76 1011.6
20260502023054 65 284 0.0 0.0 0.00 0.00 0.00 74 1011.4
20260502021538 66 287 0.0 0.0 0.00 0.00 0.00 72 1011.2
20260502020038 67 283 0.0 0.0 0.00 0.00 0.00 70 1011.1
20260502014540 69 279 0.0 0.0 0.00 0.00 0.00 68 1010.8